Satellite-Ground Cal/Val Site Overpasses Predictions

Prediction of Satellite NPP Overpassing Cal/Val Site: Antarctic Dome C

Ground Cal/Val Site Location: Latitude: -75.10, Longitude: 123.35; Satellite-Ground Site NADIR distance within 100 km.

Table of predicted overpasses for the next 14.0 days since TLE Epoch: 2/9/2018
Interval Starting Time Ending Time Minimum Distance Time Minimum Distance (km)
1 02/11/2018 15:07:24 02/11/2018 15:07:32 02/11/2018 15:07:28 95.11
2 02/12/2018 14:48:23 02/12/2018 14:48:51 02/12/2018 14:48:37 16.13
3 02/14/2018 07:31:10 02/14/2018 07:31:40 02/14/2018 07:31:25 1.12
4 02/17/2018 14:54:36 02/17/2018 14:55:04 02/17/2018 14:54:50 19.91
5 02/18/2018 14:35:53 02/18/2018 14:36:06 02/18/2018 14:36:00 87.10
6 02/19/2018 07:37:24 02/19/2018 07:37:52 02/19/2018 07:37:38 34.90
7 02/20/2018 07:18:38 02/20/2018 07:18:57 02/20/2018 07:18:48 75.24
8 02/22/2018 15:00:50 02/22/2018 15:01:14 02/22/2018 15:01:02 56.61


NCC Satellite Cal/Val Overpasses Prediction Service
